Time,TemperatureF,DewpointF,PressureIn,WindDirection,WindDirectionDegrees,WindSpeedMPH,WindSpeedGustMPH,Humidity,HourlyPrecipIn,Conditions,Clouds,dailyrainin,SoftwareType,DateUTC
2013-02-25 00:01:00,40.6,33.0,29.90,NNE,30,7.0,7.0,74,0.00,,,0.00,Wunderground v.1.15,2013-02-25 06:01:00,
2013-02-25 00:06:00,40.4,32.8,29.90,ENE,73,3.0,7.0,74,0.00,,,0.00,Wunderground v.1.15,2013-02-25 06:06:00,
2013-02-25 00:11:00,40.4,32.8,29.90,ENE,71,4.0,4.0,74,0.00,,,0.00,Wunderground v.1.15,2013-02-25 06:11:00,
2013-02-25 00:16:00,40.3,33.0,29.90,ENE,68,2.0,5.0,75,0.00,,,0.00,Wunderground v.1.15,2013-02-25 06:16:00,
2013-02-25 00:21:00,40.1,32.8,29.90,NE,47,3.0,3.0,75,0.00,,,0.00,Wunderground v.1.15,2013-02-25 06:21:00,
2013-02-25 00:26:00,39.9,32.6,29.90,ENE,71,3.0,4.0,75,0.00,,,0.00,Wunderground v.1.15,2013-02-25 06:26:00,
2013-02-25 00:32:00,39.6,32.7,29.90,NE,34,1.0,3.0,76,0.00,,,0.00,Wunderground v.1.15,2013-02-25 06:32:00,
2013-02-25 00:37:00,39.3,32.4,29.90,NE,46,3.0,5.0,76,0.00,,,0.00,Wunderground v.1.15,2013-02-25 06:37:00,
2013-02-25 00:42:00,39.3,32.7,29.91,East,79,3.0,4.0,77,0.00,,,0.00,Wunderground v.1.15,2013-02-25 06:42:00,
2013-02-25 00:47:00,39.3,32.7,29.91,ENE,68,2.0,6.0,77,0.00,,,0.00,Wunderground v.1.15,2013-02-25 06:47:00,
2013-02-25 00:52:00,39.2,32.6,29.91,ENE,74,3.0,4.0,77,0.00,,,0.00,Wunderground v.1.15,2013-02-25 06:52:00,
2013-02-25 00:58:00,39.0,32.7,29.91,ENE,58,2.0,4.0,78,0.00,,,0.00,Wunderground v.1.15,2013-02-25 06:58:00,
2013-02-25 01:03:00,38.9,32.6,29.91,ENE,61,1.0,4.0,78,0.00,,,0.00,Wunderground v.1.15,2013-02-25 07:03:00,
2013-02-25 01:08:00,38.7,32.4,29.91,East,84,2.0,4.0,78,0.00,,,0.00,Wunderground v.1.15,2013-02-25 07:08:00,
2013-02-25 01:13:00,38.6,32.3,29.91,ENE,77,3.0,4.0,78,0.00,,,0.00,Wunderground v.1.15,2013-02-25 07:13:00,
2013-02-25 01:18:00,38.4,32.5,29.91,ENE,63,2.0,4.0,79,0.00,,,0.00,Wunderground v.1.15,2013-02-25 07:18:00,
2013-02-25 01:24:00,38.2,32.6,29.91,ENE,66,1.0,3.0,80,0.00,,,0.00,Wunderground v.1.15,2013-02-25 07:24:00,
2013-02-25 01:29:00,38.0,32.4,29.90,ENE,58,2.0,3.0,80,0.00,,,0.00,Wunderground v.1.15,2013-02-25 07:29:00,
2013-02-25 01:34:00,37.9,32.3,29.91,East,91,2.0,2.0,80,0.00,,,0.00,Wunderground v.1.15,2013-02-25 07:34:00,
2013-02-25 01:39:00,38.0,32.4,29.91,ENE,73,4.0,4.0,80,0.00,,,0.00,Wunderground v.1.15,2013-02-25 07:39:00,
2013-02-25 01:44:00,37.9,32.3,29.91,ENE,68,2.0,3.0,80,0.00,,,0.00,Wunderground v.1.15,2013-02-25 07:44:00,
2013-02-25 01:50:00,37.9,32.3,29.91,NE,46,4.0,4.0,80,0.00,,,0.00,Wunderground v.1.15,2013-02-25 07:50:00,
2013-02-25 01:55:00,37.8,32.2,29.91,ENE,76,2.0,4.0,80,0.00,,,0.00,Wunderground v.1.15,2013-02-25 07:55:00,
2013-02-25 02:00:00,37.7,32.4,29.92,ENE,72,1.0,2.0,81,0.00,,,0.00,Wunderground v.1.15,2013-02-25 08:00:00,
2013-02-25 02:05:00,37.7,32.1,29.92,ENE,75,3.0,4.0,80,0.00,,,0.00,Wunderground v.1.15,2013-02-25 08:05:00,
2013-02-25 02:10:00,37.6,32.3,29.92,NNE,20,2.0,2.0,81,0.00,,,0.00,Wunderground v.1.15,2013-02-25 08:10:00,
2013-02-25 02:15:00,37.3,32.0,29.91,ENE,60,1.0,3.0,81,0.00,,,0.00,Wunderground v.1.15,2013-02-25 08:15:00,
2013-02-25 02:20:00,37.2,31.9,29.91,NE,54,1.0,1.0,81,0.00,,,0.00,Wunderground v.1.15,2013-02-25 08:20:00,
2013-02-25 02:25:00,36.9,31.9,29.91,East,81,1.0,3.0,82,0.00,,,0.00,Wunderground v.1.15,2013-02-25 08:25:00,
2013-02-25 02:30:00,36.7,31.7,29.91,East,86,0.0,1.0,82,0.00,,,0.00,Wunderground v.1.15,2013-02-25 08:30:00,
2013-02-25 02:35:00,36.5,31.5,29.90,East,89,2.0,3.0,82,0.00,,,0.00,Wunderground v.1.15,2013-02-25 08:35:00,
2013-02-25 02:40:00,36.3,31.3,29.89,East,83,1.0,2.0,82,0.00,,,0.00,Wunderground v.1.15,2013-02-25 08:40:00,
2013-02-25 02:45:00,36.2,31.5,29.90,ESE,117,0.0,4.0,83,0.00,,,0.00,Wunderground v.1.15,2013-02-25 08:45:00,
2013-02-25 02:50:00,36.1,31.4,29.89,East,96,2.0,3.0,83,0.00,,,0.00,Wunderground v.1.15,2013-02-25 08:50:00,
2013-02-25 02:55:00,36.0,31.3,29.89,ENE,57,2.0,4.0,83,0.00,,,0.00,Wunderground v.1.15,2013-02-25 08:55:00,
2013-02-25 03:00:00,36.2,31.2,29.88,ENE,75,2.0,3.0,82,0.00,,,0.00,Wunderground v.1.15,2013-02-25 09:00:00,
2013-02-25 03:05:00,36.2,31.2,29.88,East,85,2.0,4.0,82,0.00,,,0.00,Wunderground v.1.15,2013-02-25 09:05:00,
2013-02-25 03:10:00,36.0,31.3,29.88,ENE,71,3.0,3.0,83,0.00,,,0.00,Wunderground v.1.15,2013-02-25 09:10:00,
2013-02-25 03:15:00,36.0,31.0,29.88,NNE,32,2.0,4.0,82,0.00,,,0.00,Wunderground v.1.15,2013-02-25 09:15:00,
2013-02-25 03:20:00,36.0,31.0,29.88,ENE,73,1.0,2.0,82,0.00,,,0.00,Wunderground v.1.15,2013-02-25 09:20:00,
2013-02-25 03:25:00,36.1,31.1,29.87,NNE,20,2.0,5.0,82,0.00,,,0.00,Wunderground v.1.15,2013-02-25 09:25:00,
2013-02-25 03:30:00,36.0,31.0,29.87,NNE,23,1.0,2.0,82,0.00,,,0.00,Wunderground v.1.15,2013-02-25 09:30:00,
2013-02-25 03:35:00,35.9,30.9,29.87,East,83,2.0,3.0,82,0.00,,,0.00,Wunderground v.1.15,2013-02-25 09:35:00,
2013-02-25 03:40:00,36.0,31.0,29.87,ENE,77,2.0,2.0,82,0.00,,,0.00,Wunderground v.1.15,2013-02-25 09:40:00,
2013-02-25 03:45:00,36.0,30.7,29.86,ENE,75,1.0,5.0,81,0.00,,,0.00,Wunderground v.1.15,2013-02-25 09:45:00,
2013-02-25 03:50:00,36.0,30.7,29.86,NE,44,3.0,4.0,81,0.00,,,0.00,Wunderground v.1.15,2013-02-25 09:50:00,
2013-02-25 03:55:00,35.9,30.6,29.86,NNW,337,2.0,4.0,81,0.00,,,0.00,Wunderground v.1.15,2013-02-25 09:55:00,
2013-02-25 04:01:00,36.0,30.7,29.86,ENE,72,2.0,3.0,81,0.00,,,0.00,Wunderground v.1.15,2013-02-25 10:01:00,
2013-02-25 04:06:00,36.1,30.8,29.86,East,83,2.0,4.0,81,0.00,,,0.00,Wunderground v.1.15,2013-02-25 10:06:00,
2013-02-25 04:11:00,36.2,30.9,29.85,NNE,25,4.0,5.0,81,0.00,,,0.00,Wunderground v.1.15,2013-02-25 10:11:00,
2013-02-25 04:16:00,36.3,30.7,29.86,ENE,65,2.0,5.0,80,0.00,,,0.00,Wunderground v.1.15,2013-02-25 10:16:00,
2013-02-25 04:20:00,36.2,30.6,29.86,ENE,71,2.0,4.0,80,0.00,,,0.00,Wunderground v.1.15,2013-02-25 10:20:00,
2013-02-25 04:25:00,36.2,30.6,29.86,ENE,75,2.0,5.0,80,0.00,,,0.00,Wunderground v.1.15,2013-02-25 10:25:00,
2013-02-25 04:31:00,36.2,30.6,29.85,ENE,73,3.0,4.0,80,0.00,,,0.00,Wunderground v.1.15,2013-02-25 10:31:00,
2013-02-25 04:36:00,36.2,30.6,29.85,East,83,2.0,5.0,80,0.00,,,0.00,Wunderground v.1.15,2013-02-25 10:36:00,
2013-02-25 04:40:00,36.2,30.3,29.85,ENE,69,3.0,3.0,79,0.00,,,0.00,Wunderground v.1.15,2013-02-25 10:40:00,
2013-02-25 04:45:00,36.2,30.3,29.85,East,82,1.0,5.0,79,0.00,,,0.00,Wunderground v.1.15,2013-02-25 10:45:00,
2013-02-25 04:50:00,36.2,30.3,29.85,ENE,75,2.0,3.0,79,0.00,,,0.00,Wunderground v.1.15,2013-02-25 10:50:00,
2013-02-25 04:55:00,36.2,30.6,29.85,NNE,13,2.0,6.0,80,0.00,,,0.00,Wunderground v.1.15,2013-02-25 10:55:00,
2013-02-25 05:01:00,36.3,30.7,29.85,NE,40,5.0,6.0,80,0.00,,,0.00,Wunderground v.1.15,2013-02-25 11:01:00,
2013-02-25 05:06:00,36.3,30.7,29.85,NE,47,1.0,6.0,80,0.00,,,0.00,Wunderground v.1.15,2013-02-25 11:06:00,
2013-02-25 05:11:00,36.4,30.5,29.85,ENE,66,5.0,5.0,79,0.00,,,0.00,Wunderground v.1.15,2013-02-25 11:11:00,
2013-02-25 05:16:00,36.5,30.9,29.85,ENE,57,3.0,6.0,80,0.00,,,0.00,Wunderground v.1.15,2013-02-25 11:16:00,
2013-02-25 05:21:00,36.5,30.6,29.86,ENE,64,2.0,6.0,79,0.00,,,0.00,Wunderground v.1.15,2013-02-25 11:21:00,
2013-02-25 05:26:00,36.7,30.8,29.86,ENE,63,2.0,6.0,79,0.00,,,0.00,Wunderground v.1.15,2013-02-25 11:26:00,
2013-02-25 05:31:00,36.7,30.8,29.86,East,82,1.0,4.0,79,0.00,,,0.00,Wunderground v.1.15,2013-02-25 11:31:00,
2013-02-25 05:36:00,36.7,30.8,29.85,ENE,72,3.0,4.0,79,0.00,,,0.00,Wunderground v.1.15,2013-02-25 11:36:00,
2013-02-25 05:41:00,36.7,30.8,29.85,East,82,3.0,5.0,79,0.00,,,0.00,Wunderground v.1.15,2013-02-25 11:41:00,
2013-02-25 05:46:00,36.7,30.8,29.86,NNE,25,4.0,6.0,79,0.00,,,0.00,Wunderground v.1.15,2013-02-25 11:46:00,
2013-02-25 05:51:00,36.9,30.7,29.86,ENE,70,5.0,7.0,78,0.00,,,0.00,Wunderground v.1.15,2013-02-25 11:51:00,
2013-02-25 05:56:00,36.9,30.4,29.85,ENE,68,5.0,7.0,77,0.00,,,0.00,Wunderground v.1.15,2013-02-25 11:56:00,
2013-02-25 06:01:00,36.9,30.4,29.86,ENE,66,1.0,5.0,77,0.00,,,0.00,Wunderground v.1.15,2013-02-25 12:01:00,
2013-02-25 06:06:00,36.9,30.4,29.84,East,86,2.0,5.0,77,0.00,,,0.00,Wunderground v.1.15,2013-02-25 12:06:00,
2013-02-25 06:11:00,36.9,30.4,29.84,ENE,57,8.0,8.0,77,0.00,,,0.00,Wunderground v.1.15,2013-02-25 12:11:00,
2013-02-25 06:16:00,37.0,30.5,29.84,North,8,3.0,8.0,77,0.00,,,0.00,Wunderground v.1.15,2013-02-25 12:16:00,
2013-02-25 06:21:00,36.9,30.4,29.83,NE,44,4.0,6.0,77,0.00,,,0.00,Wunderground v.1.15,2013-02-25 12:21:00,
2013-02-25 06:26:00,37.0,30.5,29.82,ENE,65,3.0,9.0,77,0.00,,,0.00,Wunderground v.1.15,2013-02-25 12:26:00,
2013-02-25 06:31:00,37.0,30.5,29.82,ENE,78,3.0,6.0,77,0.00,,,0.00,Wunderground v.1.15,2013-02-25 12:31:00,
2013-02-25 06:36:00,37.0,30.5,29.82,NNE,30,4.0,9.0,77,0.00,,,0.00,Wunderground v.1.15,2013-02-25 12:36:00,
2013-02-25 06:41:00,37.0,30.5,29.82,ENE,67,5.0,7.0,77,0.00,,,0.00,Wunderground v.1.15,2013-02-25 12:41:00,
2013-02-25 06:46:00,37.0,30.5,29.81,ENE,64,3.0,10.0,77,0.00,,,0.00,Wunderground v.1.15,2013-02-25 12:46:00,
2013-02-25 06:51:00,37.0,30.5,29.82,ENE,62,4.0,5.0,77,0.00,,,0.00,Wunderground v.1.15,2013-02-25 12:51:00,
2013-02-25 06:57:00,37.0,30.1,29.82,ENE,78,2.0,6.0,76,0.00,,,0.00,Wunderground v.1.15,2013-02-25 12:57:00,
2013-02-25 07:02:00,37.1,30.2,29.83,NNE,23,4.0,6.0,76,0.00,,,0.00,Wunderground v.1.15,2013-02-25 13:02:00,
2013-02-25 07:07:00,37.1,30.2,29.83,ENE,75,3.0,6.0,76,0.00,,,0.00,Wunderground v.1.15,2013-02-25 13:07:00,
2013-02-25 07:12:00,37.1,30.2,29.83,ENE,60,3.0,4.0,76,0.00,,,0.00,Wunderground v.1.15,2013-02-25 13:12:00,
2013-02-25 07:17:00,37.1,30.2,29.82,ENE,58,7.0,8.0,76,0.00,,,0.00,Wunderground v.1.15,2013-02-25 13:17:00,
2013-02-25 07:22:00,37.1,30.2,29.83,ENE,73,2.0,3.0,76,0.00,,,0.00,Wunderground v.1.15,2013-02-25 13:22:00,
2013-02-25 07:27:00,37.1,30.2,29.83,ENE,58,3.0,6.0,76,0.00,,,0.00,Wunderground v.1.15,2013-02-25 13:27:00,
2013-02-25 07:32:00,37.2,30.3,29.83,NE,41,2.0,3.0,76,0.00,,,0.00,Wunderground v.1.15,2013-02-25 13:32:00,
2013-02-25 07:37:00,37.3,30.4,29.82,NE,46,2.0,6.0,76,0.00,,,0.00,Wunderground v.1.15,2013-02-25 13:37:00,
2013-02-25 07:42:00,37.4,30.5,29.82,NNE,23,4.0,5.0,76,0.00,,,0.00,Wunderground v.1.15,2013-02-25 13:42:00,
2013-02-25 07:47:00,37.4,30.5,29.82,ENE,77,2.0,8.0,76,0.00,,,0.00,Wunderground v.1.15,2013-02-25 13:47:00,
2013-02-25 07:52:00,37.5,30.6,29.81,ENE,60,5.0,6.0,76,0.00,,,0.00,Wunderground v.1.15,2013-02-25 13:52:00,
2013-02-25 07:57:00,37.6,30.7,29.80,ENE,69,6.0,9.0,76,0.00,,,0.00,Wunderground v.1.15,2013-02-25 13:57:00,
2013-02-25 08:02:00,37.6,30.4,29.80,ENE,63,4.0,8.0,75,0.00,,,0.00,Wunderground v.1.15,2013-02-25 14:02:00,
2013-02-25 08:07:00,37.6,30.4,29.80,ENE,70,4.0,8.0,75,0.00,,,0.00,Wunderground v.1.15,2013-02-25 14:07:00,
2013-02-25 08:12:00,37.7,30.5,29.80,ENE,64,3.0,5.0,75,0.00,,,0.00,Wunderground v.1.15,2013-02-25 14:12:00,
2013-02-25 08:17:00,37.7,30.5,29.80,NE,47,5.0,7.0,75,0.00,,,0.00,Wunderground v.1.15,2013-02-25 14:17:00,
2013-02-25 08:22:00,37.8,30.6,29.79,ENE,57,4.0,6.0,75,0.00,,,0.00,Wunderground v.1.15,2013-02-25 14:22:00,
2013-02-25 08:27:00,37.9,30.7,29.78,ENE,66,4.0,8.0,75,0.00,,,0.00,Wunderground v.1.15,2013-02-25 14:27:00,
2013-02-25 08:32:00,38.1,30.5,29.77,ENE,71,5.0,6.0,74,0.00,,,0.00,Wunderground v.1.15,2013-02-25 14:32:00,
2013-02-25 08:37:00,38.3,30.4,29.78,East,90,6.0,8.0,73,0.00,,,0.00,Wunderground v.1.15,2013-02-25 14:37:00,
2013-02-25 08:42:00,38.6,30.0,29.78,East,93,6.0,12.0,71,0.00,,,0.00,Wunderground v.1.15,2013-02-25 14:42:00,
2013-02-25 08:47:00,38.9,30.3,29.79,ENE,68,7.0,13.0,71,0.00,,,0.00,Wunderground v.1.15,2013-02-25 14:47:00,
2013-02-25 08:52:00,39.1,30.1,29.79,ENE,73,6.0,8.0,70,0.00,,,0.00,Wunderground v.1.15,2013-02-25 14:52:00,
2013-02-25 08:57:00,39.3,29.6,29.78,ENE,66,9.0,14.0,68,0.00,,,0.00,Wunderground v.1.15,2013-02-25 14:57:00,
2013-02-25 09:02:00,39.7,30.0,29.78,East,79,9.0,11.0,68,0.00,,,0.00,Wunderground v.1.15,2013-02-25 15:02:00,
2013-02-25 09:07:00,40.0,29.9,29.78,NNE,16,5.0,11.0,67,0.00,,,0.00,Wunderground v.1.15,2013-02-25 15:07:00,
2013-02-25 09:12:00,40.2,29.7,29.78,East,88,6.0,7.0,66,0.00,,,0.00,Wunderground v.1.15,2013-02-25 15:12:00,
2013-02-25 09:17:00,40.4,29.9,29.78,ENE,58,5.0,12.0,66,0.00,,,0.00,Wunderground v.1.15,2013-02-25 15:17:00,
2013-02-25 09:22:00,40.5,30.0,29.78,ENE,76,5.0,9.0,66,0.00,,,0.00,Wunderground v.1.15,2013-02-25 15:22:00,
2013-02-25 09:27:00,40.6,29.7,29.77,East,79,4.0,9.0,65,0.00,,,0.00,Wunderground v.1.15,2013-02-25 15:27:00,
2013-02-25 09:32:00,40.7,29.8,29.77,NE,42,6.0,8.0,65,0.00,,,0.00,Wunderground v.1.15,2013-02-25 15:32:00,
2013-02-25 09:37:00,40.7,29.8,29.77,NE,54,8.0,12.0,65,0.00,,,0.00,Wunderground v.1.15,2013-02-25 15:37:00,
2013-02-25 09:42:00,40.8,29.9,29.77,East,83,11.0,12.0,65,0.00,,,0.00,Wunderground v.1.15,2013-02-25 15:42:00,
2013-02-25 09:47:00,40.8,29.6,29.74,ENE,65,6.0,15.0,64,0.00,,,0.00,Wunderground v.1.15,2013-02-25 15:47:00,
2013-02-25 09:52:00,40.9,29.7,29.74,ENE,75,6.0,10.0,64,0.00,,,0.00,Wunderground v.1.15,2013-02-25 15:52:00,
2013-02-25 09:57:00,40.9,30.0,29.75,NE,51,3.0,10.0,65,0.00,,,0.00,Wunderground v.1.15,2013-02-25 15:57:00,
2013-02-25 10:03:00,41.0,29.7,29.75,ENE,72,5.0,11.0,64,0.00,,,0.00,Wunderground v.1.15,2013-02-25 16:03:00,
2013-02-25 10:08:00,41.0,29.7,29.74,ENE,59,4.0,14.0,64,0.00,,,0.00,Wunderground v.1.15,2013-02-25 16:08:00,
2013-02-25 10:13:00,41.1,29.5,29.73,ENE,59,8.0,8.0,63,0.00,,,0.00,Wunderground v.1.15,2013-02-25 16:13:00,
2013-02-25 10:18:00,41.2,29.5,29.74,ENE,76,3.0,9.0,63,0.00,,,0.00,Wunderground v.1.15,2013-02-25 16:18:00,
2013-02-25 10:23:00,41.3,29.6,29.74,ENE,63,9.0,13.0,63,0.00,,,0.00,Wunderground v.1.15,2013-02-25 16:23:00,
2013-02-25 10:28:00,41.4,29.7,29.74,ENE,75,6.0,15.0,63,0.00,,,0.00,Wunderground v.1.15,2013-02-25 16:28:00,
2013-02-25 10:33:00,41.6,29.5,29.74,NE,44,7.0,8.0,62,0.00,,,0.00,Wunderground v.1.15,2013-02-25 16:33:00,
2013-02-25 10:37:00,41.7,30.0,29.73,NE,52,3.0,11.0,63,0.00,,,0.00,Wunderground v.1.15,2013-02-25 16:37:00,
2013-02-25 10:42:00,41.8,30.1,29.73,ENE,75,6.0,7.0,63,0.00,,,0.00,Wunderground v.1.15,2013-02-25 16:42:00,
2013-02-25 10:47:00,41.9,30.2,29.73,East,93,5.0,7.0,63,0.00,,,0.00,Wunderground v.1.15,2013-02-25 16:47:00,
2013-02-25 10:52:00,41.9,30.2,29.73,NE,37,2.0,6.0,63,0.00,,,0.00,Wunderground v.1.15,2013-02-25 16:52:00,
2013-02-25 10:57:00,41.9,30.2,29.74,NNE,23,3.0,8.0,63,0.00,,,0.00,Wunderground v.1.15,2013-02-25 16:57:00,
2013-02-25 11:02:00,41.8,30.1,29.75,WNW,300,5.0,6.0,63,0.00,,,0.00,Wunderground v.1.15,2013-02-25 17:02:00,
2013-02-25 11:07:00,41.7,30.4,29.76,NNW,343,2.0,6.0,64,0.00,,,0.00,Wunderground v.1.15,2013-02-25 17:07:00,
2013-02-25 11:12:00,41.5,30.6,29.74,NE,42,4.0,6.0,65,0.00,,,0.00,Wunderground v.1.15,2013-02-25 17:12:00,
2013-02-25 11:18:00,41.3,30.8,29.71,East,81,4.0,8.0,66,0.00,,,0.00,Wunderground v.1.15,2013-02-25 17:18:00,
2013-02-25 11:23:00,41.1,30.6,29.69,NNE,32,11.0,13.0,66,0.00,,,0.00,Wunderground v.1.15,2013-02-25 17:23:00,
2013-02-25 11:28:00,40.9,30.8,29.70,ENE,64,6.0,13.0,67,0.00,,,0.00,Wunderground v.1.15,2013-02-25 17:28:00,
2013-02-25 11:33:00,40.6,31.6,29.70,NNW,345,1.0,9.0,70,0.00,,,0.00,Wunderground v.1.15,2013-02-25 17:33:00,
2013-02-25 11:38:00,40.3,31.6,29.70,East,91,4.0,9.0,71,0.00,,,0.00,Wunderground v.1.15,2013-02-25 17:38:00,
2013-02-25 11:43:00,40.2,32.2,29.69,NE,34,5.0,8.0,73,0.00,,,0.00,Wunderground v.1.15,2013-02-25 17:43:00,
2013-02-25 11:48:00,40.1,31.8,29.68,NE,45,3.0,9.0,72,0.00,,,0.00,Wunderground v.1.15,2013-02-25 17:48:00,
2013-02-25 11:53:00,40.3,32.3,29.68,NE,42,2.0,6.0,73,0.00,,,0.00,Wunderground v.1.15,2013-02-25 17:53:00,
2013-02-25 11:58:00,40.6,32.3,29.67,ENE,65,7.0,8.0,72,0.00,,,0.00,Wunderground v.1.15,2013-02-25 17:58:00,
2013-02-25 12:03:00,41.0,32.0,29.66,ENE,73,5.0,8.0,70,0.00,,,0.00,Wunderground v.1.15,2013-02-25 18:03:00,
2013-02-25 12:08:00,41.3,32.6,29.65,NE,42,3.0,9.0,71,0.00,,,0.00,Wunderground v.1.15,2013-02-25 18:08:00,
2013-02-25 12:13:00,41.5,32.1,29.64,NE,51,5.0,8.0,69,0.00,,,0.00,Wunderground v.1.15,2013-02-25 18:13:00,
2013-02-25 12:18:00,41.8,32.0,29.62,ENE,63,4.0,11.0,68,0.00,,,0.00,Wunderground v.1.15,2013-02-25 18:18:00,
2013-02-25 12:23:00,42.0,32.2,29.62,NE,42,5.0,9.0,68,0.00,,,0.00,Wunderground v.1.15,2013-02-25 18:23:00,
2013-02-25 12:28:00,42.4,31.8,29.61,ENE,65,7.0,15.0,66,0.00,,,0.00,Wunderground v.1.15,2013-02-25 18:28:00,
2013-02-25 12:33:00,42.7,31.7,29.60,ENE,61,9.0,14.0,65,0.00,,,0.00,Wunderground v.1.15,2013-02-25 18:33:00,
2013-02-25 12:38:00,42.9,31.9,29.59,NNE,17,10.0,15.0,65,0.00,,,0.00,Wunderground v.1.15,2013-02-25 18:38:00,
2013-02-25 12:43:00,43.2,32.2,29.58,ESE,113,8.0,15.0,65,0.00,,,0.00,Wunderground v.1.15,2013-02-25 18:43:00,
2013-02-25 12:48:00,43.4,32.0,29.59,NNE,26,9.0,15.0,64,0.00,,,0.00,Wunderground v.1.15,2013-02-25 18:48:00,
2013-02-25 12:53:00,43.6,32.2,29.59,NE,55,4.0,9.0,64,0.00,,,0.00,Wunderground v.1.15,2013-02-25 18:53:00,
2013-02-25 12:58:00,43.9,32.1,29.59,ENE,70,6.0,16.0,63,0.00,,,0.00,Wunderground v.1.15,2013-02-25 18:58:00,
2013-02-25 13:03:00,44.1,32.3,29.58,NNE,30,5.0,11.0,63,0.00,,,0.00,Wunderground v.1.15,2013-02-25 19:03:00,
2013-02-25 13:08:00,44.3,32.5,29.57,East,96,5.0,13.0,63,0.00,,,0.00,Wunderground v.1.15,2013-02-25 19:08:00,
2013-02-25 13:13:00,44.5,32.3,29.58,NNE,30,7.0,8.0,62,0.00,,,0.00,Wunderground v.1.15,2013-02-25 19:13:00,
2013-02-25 13:18:00,44.6,32.8,29.58,ENE,69,8.0,8.0,63,0.00,,,0.00,Wunderground v.1.15,2013-02-25 19:18:00,
2013-02-25 13:23:00,44.6,33.2,29.59,ENE,68,4.0,7.0,64,0.00,,,0.00,Wunderground v.1.15,2013-02-25 19:23:00,
2013-02-25 13:28:00,44.9,33.8,29.59,NE,42,9.0,17.0,65,0.00,,,0.01,Wunderground v.1.15,2013-02-25 19:28:00,
2013-02-25 13:33:00,44.6,34.3,29.58,NE,40,6.0,9.0,67,0.00,,,0.01,Wunderground v.1.15,2013-02-25 19:33:00,
2013-02-25 13:38:00,44.4,34.9,29.56,NNE,30,4.0,12.0,69,0.00,,,0.01,Wunderground v.1.15,2013-02-25 19:38:00,
2013-02-25 13:43:00,44.3,34.8,29.58,NE,49,4.0,9.0,69,0.00,,,0.02,Wunderground v.1.15,2013-02-25 19:43:00,
2013-02-25 13:48:00,44.5,35.3,29.58,NE,47,2.0,10.0,70,0.00,,,0.02,Wunderground v.1.15,2013-02-25 19:48:00,
2013-02-25 13:53:00,44.1,36.0,29.55,NE,40,3.0,8.0,73,0.00,,,0.02,Wunderground v.1.15,2013-02-25 19:53:00,
2013-02-25 13:58:00,43.5,36.1,29.56,NNE,32,3.0,8.0,75,0.04,,,0.03,Wunderground v.1.15,2013-02-25 19:58:00,
2013-02-25 14:03:00,43.6,36.5,29.56,NE,39,4.0,7.0,76,0.04,,,0.03,Wunderground v.1.15,2013-02-25 20:03:00,
2013-02-25 14:08:00,43.6,36.5,29.56,ENE,75,4.0,10.0,76,0.04,,,0.03,Wunderground v.1.15,2013-02-25 20:08:00,
2013-02-25 14:13:00,43.4,36.7,29.57,NE,44,2.0,4.0,77,0.04,,,0.03,Wunderground v.1.15,2013-02-25 20:13:00,
2013-02-25 14:18:00,43.3,36.6,29.57,NE,37,5.0,9.0,77,0.00,,,0.04,Wunderground v.1.15,2013-02-25 20:18:00,
2013-02-25 14:23:00,43.3,36.2,29.58,North,6,2.0,4.0,76,0.08,,,0.05,Wunderground v.1.15,2013-02-25 20:23:00,
2013-02-25 14:28:00,42.8,37.4,29.57,NE,34,3.0,8.0,81,0.08,,,0.05,Wunderground v.1.15,2013-02-25 20:28:00,
2013-02-25 14:33:00,42.3,37.2,29.57,ENE,70,5.0,8.0,82,0.10,,,0.06,Wunderground v.1.15,2013-02-25 20:33:00,
2013-02-25 14:38:00,42.4,37.3,29.57,ENE,73,3.0,12.0,82,0.13,,,0.08,Wunderground v.1.15,2013-02-25 20:38:00,
2013-02-25 14:43:00,41.9,37.4,29.57,SSW,198,2.0,5.0,84,0.16,,,0.09,Wunderground v.1.15,2013-02-25 20:43:00,
2013-02-25 14:48:00,41.7,37.5,29.58,ENE,61,4.0,6.0,85,0.21,,,0.11,Wunderground v.1.15,2013-02-25 20:48:00,
2013-02-25 14:53:00,41.6,37.7,29.58,South,169,1.0,7.0,86,0.18,,,0.12,Wunderground v.1.15,2013-02-25 20:53:00,
2013-02-25 14:58:00,41.5,37.9,29.56,NNE,22,8.0,10.0,87,0.25,,,0.14,Wunderground v.1.15,2013-02-25 20:58:00,
2013-02-25 15:03:00,41.4,37.8,29.55,East,86,7.0,13.0,87,0.30,,,0.17,Wunderground v.1.15,2013-02-25 21:03:00,
2013-02-25 15:08:00,41.5,38.2,29.54,ENE,75,4.0,15.0,88,0.22,,,0.18,Wunderground v.1.15,2013-02-25 21:08:00,
2013-02-25 15:13:00,41.4,38.1,29.55,East,101,7.0,11.0,88,0.15,,,0.19,Wunderground v.1.15,2013-02-25 21:13:00,
2013-02-25 15:18:00,41.5,38.2,29.57,ENE,69,7.0,11.0,88,0.07,,,0.19,Wunderground v.1.15,2013-02-25 21:18:00,
2013-02-25 15:23:00,41.6,38.3,29.56,NNE,30,4.0,10.0,88,0.04,,,0.19,Wunderground v.1.15,2013-02-25 21:23:00,
2013-02-25 15:28:00,41.7,38.7,29.55,ENE,63,7.0,10.0,89,0.00,,,0.19,Wunderground v.1.15,2013-02-25 21:28:00,
2013-02-25 15:33:00,42.0,39.6,29.54,North,11,9.0,9.0,91,0.00,,,0.19,Wunderground v.1.15,2013-02-25 21:33:00,
2013-02-25 15:38:00,42.2,39.2,29.53,ENE,66,4.0,11.0,89,0.00,,,0.19,Wunderground v.1.15,2013-02-25 21:38:00,
2013-02-25 15:43:00,42.3,39.6,29.54,NE,52,5.0,10.0,90,0.00,,,0.19,Wunderground v.1.15,2013-02-25 21:43:00,
2013-02-25 15:48:00,42.0,39.0,29.55,ENE,58,6.0,11.0,89,0.00,,,0.19,Wunderground v.1.15,2013-02-25 21:48:00,
2013-02-25 15:53:00,41.8,38.8,29.55,NE,34,6.0,13.0,89,0.00,,,0.19,Wunderground v.1.15,2013-02-25 21:53:00,
2013-02-25 15:58:00,41.6,38.3,29.55,ENE,67,4.0,13.0,88,0.00,,,0.19,Wunderground v.1.15,2013-02-25 21:58:00,
2013-02-25 16:03:00,41.4,38.1,29.54,NNE,30,7.0,12.0,88,0.00,,,0.19,Wunderground v.1.15,2013-02-25 22:03:00,
2013-02-25 16:08:00,41.4,37.8,29.55,ESE,110,7.0,14.0,87,0.00,,,0.19,Wunderground v.1.15,2013-02-25 22:08:00,
2013-02-25 16:13:00,41.5,37.9,29.54,NE,42,10.0,14.0,87,0.00,,,0.19,Wunderground v.1.15,2013-02-25 22:13:00,
2013-02-25 16:18:00,41.4,37.8,29.53,NE,35,4.0,14.0,87,0.00,,,0.19,Wunderground v.1.15,2013-02-25 22:18:00,
2013-02-25 16:23:00,41.4,37.8,29.53,NNE,29,9.0,10.0,87,0.00,,,0.20,Wunderground v.1.15,2013-02-25 22:23:00,
2013-02-25 16:28:00,41.3,38.0,29.53,ENE,75,6.0,13.0,88,0.00,,,0.20,Wunderground v.1.15,2013-02-25 22:28:00,
2013-02-25 16:33:00,41.2,37.9,29.52,ENE,68,7.0,11.0,88,0.00,,,0.20,Wunderground v.1.15,2013-02-25 22:33:00,
2013-02-25 16:38:00,41.1,37.5,29.52,NE,49,7.0,11.0,87,0.00,,,0.20,Wunderground v.1.15,2013-02-25 22:38:00,
2013-02-25 16:43:00,41.1,37.5,29.52,ENE,63,8.0,17.0,87,0.00,,,0.20,Wunderground v.1.15,2013-02-25 22:43:00,
2013-02-25 16:48:00,41.0,37.4,29.52,ENE,71,6.0,17.0,87,0.00,,,0.20,Wunderground v.1.15,2013-02-25 22:48:00,
2013-02-25 16:53:00,40.9,37.3,29.52,ENE,64,9.0,10.0,87,0.00,,,0.20,Wunderground v.1.15,2013-02-25 22:53:00,
2013-02-25 16:58:00,40.8,37.2,29.52,ENE,58,7.0,11.0,87,0.00,,,0.20,Wunderground v.1.15,2013-02-25 22:58:00,
2013-02-25 17:03:00,40.7,37.1,29.52,NE,52,6.0,8.0,87,0.00,,,0.20,Wunderground v.1.15,2013-02-25 23:03:00,
2013-02-25 17:08:00,40.6,37.0,29.53,ENE,57,5.0,8.0,87,0.00,,,0.20,Wunderground v.1.15,2013-02-25 23:08:00,
2013-02-25 17:13:00,40.5,37.2,29.53,NE,41,3.0,5.0,88,0.00,,,0.20,Wunderground v.1.15,2013-02-25 23:13:00,
2013-02-25 17:18:00,40.4,37.1,29.52,ENE,68,4.0,9.0,88,0.00,,,0.21,Wunderground v.1.15,2013-02-25 23:18:00,
2013-02-25 17:23:00,40.2,36.9,29.53,NE,52,1.0,4.0,88,0.09,,,0.21,Wunderground v.1.15,2013-02-25 23:23:00,
2013-02-25 17:28:00,40.1,37.1,29.54,NE,41,3.0,4.0,89,0.09,,,0.22,Wunderground v.1.15,2013-02-25 23:28:00,
2013-02-25 17:33:00,40.1,37.1,29.54,NE,49,4.0,8.0,89,0.06,,,0.22,Wunderground v.1.15,2013-02-25 23:33:00,
2013-02-25 17:38:00,40.0,37.0,29.55,NE,44,3.0,8.0,89,0.04,,,0.23,Wunderground v.1.15,2013-02-25 23:38:00,
2013-02-25 17:43:00,39.9,36.9,29.55,East,83,6.0,7.0,89,0.04,,,0.23,Wunderground v.1.15,2013-02-25 23:43:00,
2013-02-25 17:48:00,39.8,36.8,29.55,NE,37,6.0,10.0,89,0.12,,,0.24,Wunderground v.1.15,2013-02-25 23:48:00,
2013-02-25 17:53:00,39.7,36.7,29.57,NNE,25,6.0,14.0,89,0.12,,,0.25,Wunderground v.1.15,2013-02-25 23:53:00,
2013-02-25 17:58:00,39.5,36.5,29.57,ENE,60,6.0,14.0,89,0.12,,,0.26,Wunderground v.1.15,2013-02-25 23:58:00,
2013-02-25 18:03:00,39.2,36.5,29.56,ENE,66,6.0,12.0,90,0.28,,,0.28,Wunderground v.1.15,2013-02-26 00:03:00,
2013-02-25 18:08:00,39.0,36.6,29.55,ENE,57,6.0,16.0,91,0.23,,,0.30,Wunderground v.1.15,2013-02-26 00:08:00,
2013-02-25 18:13:00,38.9,36.5,29.55,ENE,63,5.0,14.0,91,0.22,,,0.32,Wunderground v.1.15,2013-02-26 00:13:00,
2013-02-25 18:18:00,38.9,36.5,29.54,ENE,71,7.0,15.0,91,0.13,,,0.33,Wunderground v.1.15,2013-02-26 00:18:00,
2013-02-25 18:23:00,38.8,36.7,29.55,North,6,9.0,11.0,92,0.08,,,0.34,Wunderground v.1.15,2013-02-26 00:23:00,
2013-02-25 18:28:00,38.9,36.8,29.54,NE,51,7.0,14.0,92,0.08,,,0.34,Wunderground v.1.15,2013-02-26 00:28:00,
2013-02-25 18:33:00,38.8,36.7,29.54,ENE,75,5.0,8.0,92,0.05,,,0.34,Wunderground v.1.15,2013-02-26 00:33:00,
2013-02-25 18:38:00,38.8,36.7,29.54,NNE,25,5.0,11.0,92,0.04,,,0.34,Wunderground v.1.15,2013-02-26 00:38:00,
2013-02-25 18:43:00,38.7,36.6,29.54,NNE,20,7.0,12.0,92,0.00,,,0.34,Wunderground v.1.15,2013-02-26 00:43:00,
2013-02-25 18:48:00,38.7,36.6,29.54,NE,49,5.0,12.0,92,0.00,,,0.34,Wunderground v.1.15,2013-02-26 00:48:00,
2013-02-25 18:53:00,38.5,36.4,29.53,NE,50,8.0,10.0,92,0.00,,,0.34,Wunderground v.1.15,2013-02-26 00:53:00,
2013-02-25 18:58:00,38.5,36.4,29.52,East,82,5.0,14.0,92,0.00,,,0.34,Wunderground v.1.15,2013-02-26 00:58:00,
2013-02-25 19:03:00,38.4,36.3,29.53,NNE,29,8.0,10.0,92,0.00,,,0.34,Wunderground v.1.15,2013-02-26 01:03:00,
2013-02-25 19:08:00,38.4,36.3,29.53,NE,47,4.0,10.0,92,0.00,,,0.34,Wunderground v.1.15,2013-02-26 01:08:00,
2013-02-25 19:13:00,38.3,36.2,29.52,NE,49,6.0,11.0,92,0.00,,,0.34,Wunderground v.1.15,2013-02-26 01:13:00,
2013-02-25 19:18:00,38.3,36.2,29.52,ENE,65,5.0,13.0,92,0.00,,,0.34,Wunderground v.1.15,2013-02-26 01:18:00,
2013-02-25 19:23:00,38.3,36.2,29.52,NE,42,6.0,11.0,92,0.00,,,0.34,Wunderground v.1.15,2013-02-26 01:23:00,
2013-02-25 19:28:00,38.2,36.1,29.52,NE,51,7.0,12.0,92,0.00,,,0.34,Wunderground v.1.15,2013-02-26 01:28:00,
2013-02-25 21:10:00,38.4,36.0,29.47,NE,34,4.0,4.0,91,0.00,,,0.35,Wunderground v.1.15,2013-02-26 03:10:00,
2013-02-25 21:15:00,38.3,35.9,29.47,NE,46,4.0,13.0,91,0.00,,,0.35,Wunderground v.1.15,2013-02-26 03:15:00,
2013-02-25 21:20:00,38.1,35.7,29.47,East,83,5.0,11.0,91,0.00,,,0.35,Wunderground v.1.15,2013-02-26 03:20:00,
2013-02-25 21:25:00,38.0,35.9,29.47,ENE,68,4.0,11.0,92,0.00,,,0.36,Wunderground v.1.15,2013-02-26 03:25:00,
2013-02-25 21:30:00,37.9,35.8,29.47,ENE,77,6.0,7.0,92,0.00,,,0.36,Wunderground v.1.15,2013-02-26 03:30:00,
2013-02-25 21:35:00,37.9,35.8,29.47,ENE,68,9.0,12.0,92,0.05,,,0.37,Wunderground v.1.15,2013-02-26 03:35:00,
2013-02-25 21:40:00,37.9,35.8,29.46,NNE,33,7.0,7.0,92,0.05,,,0.37,Wunderground v.1.15,2013-02-26 03:40:00,
2013-02-25 21:45:00,37.8,35.7,29.46,East,81,7.0,13.0,92,0.05,,,0.37,Wunderground v.1.15,2013-02-26 03:45:00,
2013-02-25 21:50:00,37.9,35.8,29.46,ENE,77,6.0,14.0,92,0.04,,,0.37,Wunderground v.1.15,2013-02-26 03:50:00,
2013-02-25 21:55:00,37.8,35.7,29.45,ENE,68,5.0,14.0,92,0.00,,,0.37,Wunderground v.1.15,2013-02-26 03:55:00,
2013-02-25 22:00:00,37.5,35.4,29.45,NE,54,8.0,8.0,92,0.00,,,0.37,Wunderground v.1.15,2013-02-26 04:00:00,
2013-02-25 22:05:00,37.2,35.1,29.46,ENE,60,4.0,12.0,92,0.00,,,0.37,Wunderground v.1.15,2013-02-26 04:05:00,
2013-02-25 22:10:00,37.1,35.0,29.46,ENE,78,4.0,5.0,92,0.00,,,0.37,Wunderground v.1.15,2013-02-26 04:10:00,
2013-02-25 22:15:00,37.0,35.2,29.46,ENE,61,5.0,7.0,93,0.00,,,0.37,Wunderground v.1.15,2013-02-26 04:15:00,
2013-02-25 22:20:00,37.0,35.2,29.46,NE,53,5.0,5.0,93,0.00,,,0.38,Wunderground v.1.15,2013-02-26 04:20:00,
2013-02-25 22:25:00,37.0,35.2,29.46,NE,51,4.0,8.0,93,0.00,,,0.38,Wunderground v.1.15,2013-02-26 04:25:00,
2013-02-25 22:30:00,36.9,35.1,29.46,NE,56,6.0,6.0,93,0.00,,,0.38,Wunderground v.1.15,2013-02-26 04:30:00,
2013-02-25 22:35:00,36.8,35.0,29.46,ENE,64,3.0,6.0,93,0.00,,,0.38,Wunderground v.1.15,2013-02-26 04:35:00,
2013-02-25 22:40:00,36.7,34.9,29.46,NE,53,1.0,3.0,93,0.00,,,0.39,Wunderground v.1.15,2013-02-26 04:40:00,
2013-02-25 22:45:00,36.4,34.6,29.47,South,169,0.0,6.0,93,0.17,,,0.40,Wunderground v.1.15,2013-02-26 04:45:00,
2013-02-25 22:50:00,36.2,34.4,29.47,East,100,0.0,2.0,93,0.20,,,0.42,Wunderground v.1.15,2013-02-26 04:50:00,
2013-02-25 22:55:00,36.0,34.2,29.47,NE,46,2.0,2.0,93,0.16,,,0.43,Wunderground v.1.15,2013-02-26 04:55:00,
2013-02-25 23:00:00,35.8,34.0,29.47,NE,41,1.0,1.0,93,0.42,,,0.46,Wunderground v.1.15,2013-02-26 05:00:00,
2013-02-25 23:05:00,35.5,33.9,29.46,NE,42,1.0,2.0,94,0.26,,,0.48,Wunderground v.1.15,2013-02-26 05:05:00,
2013-02-25 23:10:00,35.4,33.8,29.45,NNE,25,3.0,3.0,94,0.13,,,0.49,Wunderground v.1.15,2013-02-26 05:10:00,
2013-02-25 23:15:00,35.4,33.8,29.45,ENE,64,3.0,6.0,94,0.13,,,0.50,Wunderground v.1.15,2013-02-26 05:15:00,
2013-02-25 23:20:00,35.4,34.1,29.45,ENE,60,2.0,3.0,95,0.10,,,0.51,Wunderground v.1.15,2013-02-26 05:20:00,
2013-02-25 23:25:00,35.5,34.2,29.44,NNE,33,1.0,5.0,95,0.13,,,0.52,Wunderground v.1.15,2013-02-26 05:25:00,
2013-02-25 23:30:00,35.5,34.2,29.44,NNE,32,2.0,2.0,95,0.15,,,0.53,Wunderground v.1.15,2013-02-26 05:30:00,
2013-02-25 23:35:00,35.6,34.3,29.44,ENE,65,1.0,4.0,95,0.14,,,0.54,Wunderground v.1.15,2013-02-26 05:35:00,
2013-02-25 23:40:00,35.7,34.4,29.44,North,1,3.0,3.0,95,0.12,,,0.55,Wunderground v.1.15,2013-02-26 05:40:00,
2013-02-25 23:45:00,35.9,34.6,29.43,East,81,3.0,5.0,95,0.10,,,0.56,Wunderground v.1.15,2013-02-26 05:45:00,
2013-02-25 23:50:00,35.9,34.6,29.43,ENE,76,2.0,4.0,95,0.11,,,0.57,Wunderground v.1.15,2013-02-26 05:50:00,
2013-02-25 23:55:00,35.9,34.6,29.43,NNE,17,4.0,8.0,95,0.08,,,0.57,Wunderground v.1.15,2013-02-26 05:55:00,